Regional Weather Roundup
Issued by NWS

Home | Current Version | Previous Version | Graphics & Text | Print | Product List | Glossary Off
Versions: 1 2 3 4 5 6 7 8 9 10 11 12 13 14 15 16 17 18 19 20 21 22 23 24 25 26 27 28 29 30 31 32 33 34 35 36 37 38 39 40 41 42 43 44 45 46 47 48 49 50

000
ASUS43 KMKX 281821
RWRWI

WISCONSIN REGIONAL WEATHER ROUNDUP
NATIONAL WEATHER SERVICE MILWAUKEE/SULLIVAN WI
100 PM CDT THU APR 28 2016

NOTE: "FAIR" INDICATES FEW OR NO CLOUDS BELOW 12,000 FEET WITH NO
SIGNIFICANT WEATHER AND/OR OBSTRUCTIONS TO VISIBILITY.

WIZ001-002-006>008-014>016-023>028-281900-
NORTHWEST WISCONSIN

CITY           SKY/WX    TMP DP  RH WIND       PRES   REMARKS
SUPERIOR ARPT  CLOUDY    41  32  71 E16G26    30.11R
6HR MIN TEMP:  37; 6HR MAX TEMP:  42;

ASHLAND        CLOUDY    45  33  63 NE18      30.10S
6HR MIN TEMP:  38; 6HR MAX TEMP:  45;

HAYWARD        PTSUNNY   53  24  32 SE9       30.02S
6HR MIN TEMP:  41; 6HR MAX TEMP:  54;

SIREN          CLOUDY    51  21  31 NE7       30.03R
6HR MIN TEMP:  41; 6HR MAX TEMP:  51;

CUMBERLAND     CLOUDY    46  23  39 NE9       30.01S
RICE LAKE      CLOUDY    49  24  37 NE9       30.02S
CHETEK         CLOUDY    48  25  39 E9        30.01S
6HR MIN TEMP:  40; 6HR MAX TEMP:  48;

LADYSMITH      CLOUDY    52  25  35 NE8       30.03S
6HR MIN TEMP:  40; 6HR MAX TEMP:  52;

EAU CLAIRE     LGT RAIN  41  35  79 E10       30.01R
6HR MIN TEMP:  36; 6HR MAX TEMP:  41; 6HR PCP:  0.47;

MENOMONIE      LGT RAIN  39  39  99 E9        30.02S WCI  33
6HR MIN TEMP:  36; 6HR MAX TEMP:  40; 6HR PCP:  0.32;

NEW RICHMOND   LGT RAIN  40  34  79 E9G17     30.02R WCI  34
6HR MIN TEMP:  35; 6HR MAX TEMP:  41; 6HR PCP:  0.33;

OSCEOLA        DRIZZLE   43  34  71 E10       30.05R
6HR MIN TEMP:  36; 6HR MAX TEMP:  43; 6HR PCP:  0.25;

$$

WIZ003>005-009-010-017-018-281900-
NORTH CENTRAL WISCONSIN

CITY           SKY/WX    TMP DP  RH WIND       PRES   REMARKS
MANITOWISH WTR CLOUDY    46  20  36 CALM      30.04S
6HR MIN TEMP:  37; 6HR MAX TEMP:  46;

ARBOR VITAE    MOSUNNY   52  17  24 E8G16     30.03F
6HR MIN TEMP:  39; 6HR MAX TEMP:  52;

WOODRUFF       MOSUNNY   52  17  24 E8G16     30.03F
6HR MIN TEMP:  39; 6HR MAX TEMP:  52;

RHINELANDER    CLOUDY    49  18  29 E8        30.03F
6HR MIN TEMP:  37; 6HR MAX TEMP:  50;

EAGLE RIVER    MOSUNNY   49  13  24 SE12      30.04S
LAND O LAKES   CLOUDY    51  12  21 SE9       30.05S
6HR MIN TEMP:  37; 6HR MAX TEMP:  52;

PHILLIPS       CLOUDY    46  22  39 E10G16    30.03S
6HR MIN TEMP:  38; 6HR MAX TEMP:  46;

TOMAHAWK       CLOUDY    47  18  30 E6        30.03F
6HR MIN TEMP:  38; 6HR MAX TEMP:  48;

MEDFORD        CLOUDY    46  24  41 E10       30.00S
6HR MIN TEMP:  38; 6HR MAX TEMP:  46;

MERRILL        CLOUDY    47  22  38 E10       30.03R
$$

WIZ029-030-035-036-043>047-281900-
CENTRAL WISCONSIN

CITY           SKY/WX    TMP DP  RH WIND       PRES   REMARKS
WAUSAU         LGT RAIN  46  25  43 E10       30.01R
6HR MIN TEMP:  40; 6HR MAX TEMP:  47; 6HR PCP: TRACE;

MOSINEE        LGT RAIN  37  34  87 E7        30.03R WCI  32
MARSHFIELD     LGT RAIN  40  34  79 E10       30.00R WCI  33
6HR MIN TEMP:  38; 6HR MAX TEMP:  41; 6HR PCP:  0.10;

STEVENS POINT  LGT RAIN  37  33  84 E10       30.03R WCI  30
6HR MIN TEMP:  36; 6HR MAX TEMP:  39; 6HR PCP:  0.02;

WAUPACA        RAIN      39  34  81 NE7       30.04R WCI  34
6HR MIN TEMP:  39; 6HR MAX TEMP:  42; 6HR PCP:  0.04;

WAUTOMA        NOT AVBL
WISC RAPIDS    LGT RAIN  41  38  89 E13G22    30.01S
6HR MIN TEMP:  38; 6HR MAX TEMP:  41; 6HR PCP:  0.16;

CAMP DOUGLAS   LGT RAIN  39  39 100 E12       29.97R WCI  32
                                      6HR PCP:  0.09;

$$

WIZ011>013-019>022-031-037>040-048>050-281900-
NORTHEAST WISCONSIN

CITY           SKY/WX    TMP DP  RH WIND       PRES   REMARKS
ANTIGO         CLOUDY    46  24  42 E14G22    30.03S
6HR MIN TEMP:  36; 6HR MAX TEMP:  46;

SHAWANO        CLOUDY    47  29  49 E10       30.06S
6HR MIN TEMP:  38; 6HR MAX TEMP:  48;

OCONTO         CLOUDY    45  29  53 E7        30.06S
6HR MIN TEMP:  39; 6HR MAX TEMP:  47;

STURGEON BAY   CLOUDY    45  28  53 NE9       30.08S
6HR MIN TEMP:  37; 6HR MAX TEMP:  45;

GREEN BAY      LGT RAIN  43  31  62 E12       30.06R
6HR MIN TEMP:  40; 6HR MAX TEMP:  44; 6HR PCP: TRACE;

MANITOWOC      CLOUDY    43  31  62 MISG      30.04S
6HR MIN TEMP:  40; 6HR MAX TEMP:  43; 6HR PCP:  0.04;

APPLETON       DRIZZLE   39  32  75 NE12G20   30.01S WCI  32
CLINTONVILLE   CLOUDY    41  32  70 E12       30.05S
OSHKOSH        CLOUDY    41  34  76 NE14      30.00F
6HR MIN TEMP:  40; 6HR MAX TEMP:  44; 6HR PCP:  0.04;

$$

WIZ032>034-041-042-053>061-281900-
SOUTHWEST WISCONSIN

CITY           SKY/WX    TMP DP  RH WIND       PRES   REMARKS
LA CROSSE      CLOUDY    43  33  68 E12       29.96R
6HR MIN TEMP:  41; 6HR MAX TEMP:  45; 6HR PCP: TRACE;

SPARTA         LGT RAIN  40  38  92 E12       29.98R WCI  33
6HR MIN TEMP:  39; 6HR MAX TEMP:  43; 6HR PCP:  0.05;

VIROQUA        CLOUDY    40  37  88 E14       29.93R WCI  32
6HR MIN TEMP:  39; 6HR MAX TEMP:  43;

BOSCOBEL       CLOUDY    45  39  79 NE9       29.93R
6HR MIN TEMP:  45; 6HR MAX TEMP:  47;

PRAIRIE DU CHI CLOUDY    47  39  74 E9        29.90S
6HR MIN TEMP:  43; 6HR MAX TEMP:  47;

PLATTEVILLE    CLOUDY    44  42  90 E14       29.91R
6HR MIN TEMP:  44; 6HR MAX TEMP:  45;

$$

WIZ056-057-062-063-064-067-068-281900-
SOUTH CENTRAL WISCONSIN

CITY           SKY/WX    TMP DP  RH WIND       PRES   REMARKS
REEDSBURG      CLOUDY    40  38  94 E12G17    29.95R WCI  33
6HR MIN TEMP:  39; 6HR MAX TEMP:  42; 6HR PCP:  0.07;

BARABOO/DELLS  CLOUDY    40  37  92 E13G18    29.96R WCI  32
6HR MIN TEMP:  39; 6HR MAX TEMP:  40; 6HR PCP:  0.03;

LONE ROCK      CLOUDY    43  38  82 E13       29.94R
6HR MIN TEMP:  42; 6HR MAX TEMP:  44; 6HR PCP:  0.03;

MINERAL POINT  CLOUDY    45  41  87 E13       29.90S
MADISON        CLOUDY    42  36  79 E12       29.94R
6HR MIN TEMP:  40; 6HR MAX TEMP:  43; 6HR PCP:  0.18;

MIDDLETON      CLOUDY    43  38  84 E10       29.94R
6HR MIN TEMP:  41; 6HR MAX TEMP:  43; 6HR PCP:  0.12;

WATERTOWN      CLOUDY    40  37  88 E15       29.95R WCI  32
6HR MIN TEMP:  39; 6HR MAX TEMP:  43; 6HR PCP:  0.03;

MONROE         CLOUDY    45  39  81 E14       29.90S
JANESVILLE     CLOUDY    46  37  71 E12G17    29.91R
$$

WIZ051-052-058>065-066-070>072-281900-
SOUTHEAST WISCONSIN

CITY           SKY/WX    TMP DP  RH WIND       PRES   REMARKS
MILWAUKEE      CLOUDY    40  37  89 NE17      29.96S WCI  31
6HR MIN TEMP:  38; 6HR MAX TEMP:  42; 6HR PCP:  0.01;

WAUKESHA       CLOUDY    37  36  93 E14       29.97R WCI  29
MILWAUKEE/TIMM CLOUDY    37  34  87 E10G20    29.98S FOG     WCI  30
RACINE         CLOUDY    42  37  82 NE13G20   29.97S
6HR MIN TEMP:  39; 6HR MAX TEMP:  43; 6HR PCP: TRACE;

BURLINGTON     CLOUDY    42  36  80 NE13      29.93S
6HR MIN TEMP:  37; 6HR MAX TEMP:  43;

KENOSHA        CLOUDY    42  36  79 E16       29.94R
6HR MIN TEMP:  39; 6HR MAX TEMP:  44;

FOND DU LAC    CLOUDY    42  33  70 E14       30.00S
6HR MIN TEMP:  39; 6HR MAX TEMP:  44; 6HR PCP:  0.06;

SHEBOYGAN      LGT RAIN  38  35  89 E17G30    30.03R FOG     WCI  28
6HR MIN TEMP:  38; 6HR MAX TEMP:  43; 6HR PCP: TRACE;

WEST BEND      CLOUDY    37  36  93 E13G22    29.98S FOG     WCI  29
JUNEAU         CLOUDY    38  36  92 E14       29.98R WCI  29
6HR MIN TEMP:  38; 6HR MAX TEMP:  44; 6HR PCP:  0.01;

$$

LSZ147-162-281900-
LAKE SUPERIOR

STATION/POSITION TIME  TEMP    WIND        PRES    WAVE
                       AIR SEA DIR/SP/G            HT/PER
                 (UTC) (F)     (DEG/KT/KT) (MB)    (FT/S)
W MID LAKE BUOY  1750   37 36   50/ 17/ 21 1021.2R   4/ 5
DEVILS ISLAND    1800   37      50/ 25/ 26 1021.2R
SAXON HARBOR     1700   39      50/ 15/ 18 1018.6R
$$

LMZ867-665-643>646-281900-
LAKE MICHIGAN

STATION/POSITION TIME  TEMP    WIND        PRES    WAVE
                       AIR SEA DIR/SP/G            HT/PER
                 (UTC) (F)     (DEG/KT/KT) (MB)    (FT/S)
CHAMBERS ISLAND  1740   43      50/ 10/ 13 1018.6R
N MID LAKE BUOY  1750   40 39   60/ 12/ 14 1018.4F   3/ 4
NORTHPORT PIER   1700   40      70/ 15/ 18 1018.6R
ALGOMA LAKESHORE C1F1C2F2C3F3C4F4C5F5C6F6C7F7C8M1C9M2Ca!


USA.gov is the U.S. government's official web portal to all federal, state and local government web resources and services.